Minot AFB, ND

8:38 PM CDT on October 21, 2019 (GMT -0500)
Minot Air Force Base

Weather History for KMIB - August, 2019

Change the Weather History Date:

Tuesday, August 13, 2019

  Actual Average Record
Temperature  
Mean Temperature 61 °F -  
Max Temperature 68 °F 79 °F 100 °F (2015)
Min Temperature 54 °F 53 °F 41 °F (1997)
Degree Days  
Heating Degree Days 4    
Growing Degree Days 11 (Base 50)    
Moisture  
Dew Point 55 °F    
Average Humidity 90    
Maximum Humidity 100    
Minimum Humidity 49    
Precipitation  
Precipitation 0.26 in - - ()
Sea Level Pressure  
Sea Level Pressure 30.01 in    
Wind  
Wind Speed 10 mph (North)    
Max Wind Speed 18 mph    
Max Gust Speed 22 mph    
Visibility 9 miles    
Events Rain    
Averages and records for this station are not official NWS values.
T = Trace of Precipitation, MM = Missing Value Source: NWS Daily Summary

Daily Weather History Graph

Daily Weather History Graph

Search for Another Location

Airport or City:

Astronomy

Aug. 13, 2019 Rise Set
Actual Time 6:36 AM CDT 9:03 PM CDT
Civil Twilight 6:01 AM CDT 9:38 PM CDT
Nautical Twilight 5:17 AM CDT 10:21 PM CDT
Astronomical Twilight 4:26 AM CDT 11:12 PM CDT
Moon 8:28 PM CDT (8/13) 4:28 AM CDT (8/13)
Length of Visible Light 15h 36m
Length of Day
14h 27m
Waxing Gibbous, 97% of the Moon is Illuminated
Aug 13
Waxing Gibbous
Aug 15
Full
Aug 23
Last Quarter
Aug 30
New
Sep 5
First Quarter

Hourly Weather History & Observations

Time (CDT) Temp. Dew Point Humidity Pressure Visibility Wind Dir Wind Speed Gust Speed Precip Events Conditions
12:06 AM 59.0 °F 59.0 °F 100% 29.88 in 5.0 mi Calm Calm - N/A   Light Drizzle
12:35 AM 59.0 °F 59.0 °F 100% 29.88 in 6.0 mi East 3.5 mph - N/A Rain Rain
12:56 AM 58.8 °F 58.5 °F 99% 29.87 in 4.0 mi ENE 5.8 mph - 0.07 in Rain Rain
1:01 AM 59.0 °F 59.0 °F 100% 29.87 in 6.0 mi ENE 4.6 mph - N/A Rain Rain
1:31 AM 59.0 °F 59.0 °F 100% 29.88 in 6.0 mi NNE 12.7 mph - N/A Rain Rain
1:56 AM 56.7 °F 56.3 °F 99% 29.88 in 10.0 mi NNE 13.8 mph - 0.08 in Rain Light Rain
1:57 AM 56.5 °F 56.1 °F 99% 29.88 in 10.0 mi NNE 13.8 mph - 0.07 in Rain Light Rain
2:07 AM 55.4 °F 55.4 °F 100% 29.88 in 10.0 mi NNE 13.8 mph - N/A Rain Light Rain
2:37 AM 55.4 °F 55.4 °F 100% 29.87 in 5.0 mi NE 13.8 mph - N/A Rain Light Rain
2:56 AM 55.4 °F 55.0 °F 99% 29.89 in 6.0 mi NNE 16.1 mph 21.9 mph 0.03 in Rain Light Rain
3:01 AM 55.4 °F 55.4 °F 100% 29.90 in 6.0 mi NNE 16.1 mph 21.9 mph N/A Rain Light Rain
3:39 AM 55.4 °F 55.4 °F 100% 29.92 in 5.0 mi NNE 13.8 mph 20.7 mph N/A   Overcast
3:40 AM 55.4 °F 55.4 °F 100% 29.92 in 5.0 mi NNE 15.0 mph 20.7 mph N/A   Overcast
3:41 AM 55.4 °F 55.4 °F 100% 29.92 in 4.0 mi NNE 16.1 mph 20.7 mph N/A Rain Rain
3:56 AM 54.9 °F 54.5 °F 99% 29.93 in 4.0 mi NNE 12.7 mph - 0.04 in Rain Rain
4:11 AM 55.4 °F 55.4 °F 100% 29.93 in 5.0 mi NNE 12.7 mph - N/A Rain Rain
4:16 AM 55.4 °F 55.4 °F 100% 29.93 in 6.0 mi NNE 13.8 mph - N/A Rain Light Rain
4:17 AM 55.4 °F 55.4 °F 100% 29.93 in 7.0 mi North 15.0 mph - N/A Rain Light Rain
4:48 AM 55.4 °F 55.4 °F 100% 29.95 in 10.0 mi North 12.7 mph - N/A   Light Drizzle
4:56 AM 55.4 °F 55.0 °F 99% 29.96 in 10.0 mi North 16.1 mph - 0.04 in   Light Drizzle
4:58 AM 55.4 °F 55.4 °F 100% 29.96 in 10.0 mi North 16.1 mph - N/A   Overcast
5:04 AM 55.4 °F 55.4 °F 100% 29.96 in 10.0 mi North 17.3 mph - N/A   Light Drizzle
5:14 AM 55.4 °F 55.4 °F 100% 29.96 in 10.0 mi North 16.1 mph - N/A   Light Drizzle
5:15 AM 55.4 °F 55.4 °F 100% 29.96 in 10.0 mi North 15.0 mph - N/A   Overcast
5:56 AM 55.6 °F 55.2 °F 99% 29.98 in 10.0 mi North 18.4 mph - 0.00 in   Overcast
6:41 AM 55.4 °F 55.4 °F 100% 30.03 in 10.0 mi North 15.0 mph - N/A   Overcast
6:56 AM 55.0 °F 54.7 °F 99% 30.03 in 10.0 mi North 13.8 mph - N/A   Overcast
7:56 AM 54.7 °F 54.1 °F 98% 30.06 in 10.0 mi North 13.8 mph - N/A   Overcast
8:01 AM 55.4 °F 53.6 °F 94% 30.06 in 10.0 mi North 16.1 mph - N/A   Overcast
8:16 AM 55.4 °F 53.6 °F 94% 30.06 in 10.0 mi North 13.8 mph - N/A   Overcast
8:40 AM 55.4 °F 55.4 °F 100% 30.06 in 10.0 mi North 12.7 mph - N/A   Overcast
8:45 AM 55.4 °F 55.4 °F 100% 30.08 in 10.0 mi North 13.8 mph - N/A   Overcast
8:50 AM 55.4 °F 55.4 °F 100% 30.08 in 10.0 mi North 13.8 mph - N/A   Overcast
8:56 AM 55.9 °F 54.5 °F 95% 30.08 in 10.0 mi North 15.0 mph - N/A   Overcast
9:11 AM 55.4 °F 53.6 °F 94% 30.09 in 10.0 mi North 12.7 mph - N/A   Overcast
9:56 AM 57.0 °F 54.1 °F 90% 30.10 in 10.0 mi North 12.7 mph - N/A   Overcast
10:06 AM 57.2 °F 53.6 °F 88% 30.10 in 10.0 mi North 12.7 mph - N/A   Overcast
10:56 AM 58.8 °F 54.0 °F 84% 30.10 in 10.0 mi North 12.7 mph - N/A   Overcast
11:56 AM 62.1 °F 54.0 °F 75% 30.11 in 10.0 mi North 13.8 mph - N/A   Scattered Clouds
12:56 PM 66.2 °F 54.5 °F 66% 30.11 in 10.0 mi North 12.7 mph - N/A   Partly Cloudy
1:56 PM 64.2 °F 52.2 °F 65% 30.12 in 10.0 mi NNE 9.2 mph - N/A   Overcast
2:56 PM 68.4 °F 48.4 °F 49% 30.13 in 10.0 mi NNE 9.2 mph - N/A   Mostly Cloudy
3:56 PM 67.1 °F 50.4 °F 55% 30.14 in 10.0 mi North 10.4 mph - N/A   Mostly Cloudy
4:56 PM 67.5 °F 50.7 °F 55% 30.14 in 10.0 mi North 6.9 mph - N/A   Scattered Clouds
5:56 PM 67.3 °F 51.4 °F 57% 30.14 in 10.0 mi North 5.8 mph - N/A   Mostly Cloudy
6:56 PM 66.4 °F 51.1 °F 58% 30.15 in 10.0 mi Calm Calm - N/A   Mostly Cloudy
7:56 PM 65.8 °F 51.1 °F 59% 30.15 in 10.0 mi Calm Calm - N/A   Overcast
8:56 PM 63.7 °F 55.2 °F 74% 30.13 in 10.0 mi Calm Calm - N/A   Overcast
9:56 PM 61.3 °F 55.4 °F 81% 30.15 in 10.0 mi Calm Calm - N/A   Overcast
10:56 PM 60.1 °F 55.9 °F 86% 30.15 in 10.0 mi West 3.5 mph - N/A   Overcast
11:56 PM 59.7 °F 56.1 °F 88% 30.17 in 10.0 mi WNW 3.5 mph - N/A   Overcast